Other Public Products
Issued by NWS Grand Forks, ND

Home | Current Version | Previous Version | Text Only | Print | Product List | Glossary Off
Versions: 1 2 3 4 5 6 7 8 9 10 11 12 13 14 15 16 17 18 19 20 21 22 23 24 25 26 27 28 29 30 31 32 33 34 35 36 37 38 39 40 41 42 43 44 45 46 47 48 49 50

446
FPUS83 KFGF 270431
OPUFGF
PRAIRIE TO PINES WEATHER ROUNDUP
NATIONAL WEATHER SERVICE EASTERN NORTH DAKOTA/GRAND FORKS ND
1100 PM CDT MON JUN 26 2017

 **SATELLITE DATA USED TO AUGMENT SKY COVER AT AUTOMATED STATIONS**
 *****  WEATHER ACROSS EASTERN NORTH DAKOTA  *****

CITY           SKY/WX    TMP DP  RH WIND       PRES   REMARKS
GRAND FORKS    FAIR      54  46  74 S3        30.03F
GRAND FORKS AF FAIR      50  43  77 CALM      30.03F
GRAND CITY NWS NOT AVBL
BUXTON           N/A     60  42  49 S3          N/A
DEVILS LAKE    FAIR      60  47  61 S8        30.02F
FARGO          FAIR      56  39  53 S3        30.06S
WAHPETON ARPT  FAIR      52  39  62 S7        30.09S
$$

 *****  WEATHER ACROSS CENTRAL AND WESTERN NORTH DAKOTA  *****

CITY           SKY/WX    TMP DP  RH WIND       PRES   REMARKS
JAMESTOWN      FAIR      57  39  51 SE6       30.04F
BISMARCK       FAIR      60  45  57 SE8       30.00F
MINOT          FAIR      64  44  48 SE10      29.92F
MINOT AFB      FAIR      59  44  58 SE9       29.91F
GARRISON         N/A     64  44  48 S15       29.95S
WILLISTON      FAIR      72  43  35 SE8       29.85F
DICKINSON      FAIR      64  36  35 SE16      29.93S
HETTINGER      FAIR      65  40  39 SE15G22   30.00S
$$

 *****  OTHER OBSERVATIONS NORTHEAST NORTH DAKOTA  *****

CITY           SKY/WX    TMP DP  RH WIND       PRES   REMARKS
WALHALLA       NOT AVBL
LANGDON        FAIR      52  43  71 SE9       30.01F
CAVALIER       FAIR      55  45  67 S3        30.00F
GRAFTON        FAIR      54  43  66 S7        30.03F
CANDO          NOT AVBL
FORT TOTTEN      N/A     58  42  56 SE7       29.95S
ROLLA            N/A     55  43  62 S12       29.99F
RUGBY          NOT AVBL
 ***** THE ABOVE OBSERVATIONS ARE NON NWS ARE NOT QUALITY
        CONTROLLED AND MAY MIS-REPORT RAIN FOR SNOW...
$$

 *****  OTHER OBSERVATIONS SOUTHEAST NORTH DAKOTA *****

CITY           SKY/WX    TMP DP  RH WIND       PRES   REMARKS
COOPERSTOWN    FAIR      54  45  71 S6        30.05F
VALLEY CITY    FAIR      52  43  71 S6        30.07F
OAKES          NOT AVBL
GWINNER        CLOUDY    54  48  82 S7        30.08F
SHEYENNE NWR     N/A     53  44  71 S2        29.95
BUFFALO          N/A     59  34  38 E7          N/A
WYNDMERE       NOT AVBL
 ***** THE ABOVE OBSERVATIONS ARE NON NWS ARE NOT QUALITY
       CONTROLLED AND MAY MIS-REPORT RAIN FOR SNOW...
$$

  *****  WEATHER ACROSS NORTHERN MINNESOTA  *****

CITY           SKY/WX    TMP DP  RH WIND       PRES   REMARKS
FLAG ISLAND    HAZE      63  45  51 W9        29.99F VSB 3/4
WARROAD        FAIR      57  46  67 W3        30.03S
ROSEAU         FAIR      54  46  76 S3        30.03S
HALLOCK        FAIR      54  45  71 S6        30.01F
THF RVR FALLS  FAIR      57  45  64 S3        30.05F
HALSTAD          N/A     52  41  66 S8          N/A
FOSSTON        FAIR      48  43  81 S5        30.07F
BAUDETTE       FAIR      52  50  93 CALM      30.03S
WASKISH        FAIR      57  52  82 CALM      30.04F
CROOKSTON      FAIR      57  45  62 S3        30.05F
$$
  *****  WEATHER ACROSS CENTRAL AND WEST MINNESOTA  *****

CITY           SKY/WX    TMP DP  RH WIND       PRES   REMARKS
BEMIDJI        FAIR      52  42  70 CALM      30.06F
PARK RAPIDS    FAIR      55  42  61 CALM      30.08S
WADENA         FAIR      52  45  76 CALM      30.09F
DETROIT LAKES  FAIR      57  46  67 CALM      30.09F
MOORHEAD       FAIR      61  39  44 SW5       30.08S
FERGUS FALLS   FAIR      61  45  55 S3        30.07F
ELBOW LAKE     FAIR      55  46  73 S6        30.11S
MORRIS MN      FAIR      57  43  58 S3        30.11S
STAPLES        FAIR      54  43  66 CALM      30.10S
WHEATON        FAIR      59  39  47 S6        30.12S
$$
  *****  WEATHER ELSEWHERE ACROSS MINNESOTA  *****

CITY           SKY/WX    TMP DP  RH WIND       PRES   REMARKS
DULUTH         MOCLDY    54  48  80 W7        30.05S
INTRNTL FALLS  FAIR      46  43  89 CALM      30.02S
ELY            FAIR      50  48  93 CALM      30.03S
CLOQUET        FAIR      55  43  62 W6        30.06S
BRAINERD       FAIR      48  44  86 S3        30.09S
HIBBING        FAIR      48  45  89 CALM      30.05R
ALEXANDRIA     FAIR      55  44  66 S3        30.12S
SAINT CLOUD    FAIR      51  46  83 CALM      30.10S
MINNEAPOLIS    FAIR      62  47  57 W3        30.11R
$$

  *****  WEATHER ACROSS SOUTH DAKOTA  *****

CITY           SKY/WX    TMP DP  RH WIND       PRES   REMARKS
SIOUX FALLS    FAIR      57  47  69 CALM      30.15R
BROOKINGS      FAIR      59  39  47 CALM      30.14S
WATERTOWN      FAIR      54  41  61 S3        30.13S
HURON          FAIR      57  43  59 SE7       30.12R
SISSETON         N/A     53  44  71 S7        30.10S
ABERDEEN       FAIR      52  42  69 S9        30.10S
MITCHELL       FAIR      59  42  53 SE5       30.14R
PIERRE         FAIR      59  39  47 SE9       30.06S
MOBRIDGE       FAIR      63  38  39 SE16      30.03F
RAPID CITY     FAIR      64  39  39 SE14      30.01S
$$

  *****  SOME WEATHER IN NEARBY STATES *****

CITY           SKY/WX    TMP DP  RH WIND       PRES   REMARKS
GLASGOW MT     LGT RAIN  82  36  19 SW20G26   29.80R
GREAT FALLS MT FAIR      72  46  39 N9        29.77R
CHEYENNE WY    FAIR      66  52  60 SE17G23   30.18R
SCOTTSBLUFF NE FAIR      69  43  38 SE14      30.08R
OMAHA NE       FAIR      63  50  62 NW3       30.14R
DES MOINES IA  FAIR      64  43  46 NE5       30.14R
DAVENPORT IA   FAIR      54  47  77 NW5       30.13R
CHICAGO IL     FAIR      60  44  55 NW7       30.09R
EAU CLAIRE WI  FAIR      52  48  86 SW3       30.09R
LA CROSSE WI   FAIR      58  50  75 NE3       30.11R
$$

  *****  SOME NATIONAL WEATHER *****

CITY           SKY/WX    TMP DP  RH WIND       PRES   REMARKS
LA GUARDIA NY  FAIR      73  57  57 S6        29.98S
RALEIGH NC     FAIR      69  59  70 CALM      30.05S
ATLANTA GA     FAIR      76  56  49 NE7       30.10R
NEW ORLEANS LA MOCLDY    80  71  74 SE5       30.04S
OKLAHOMA CITY  FAIR      75  58  55 S10       30.05R
ALBUQUERQUE NM FAIR      71  49  45 S17       30.21R
SALT LAKE CITY MOCLDY    90  34  13 SE13      29.83F
LOS ANGELES CA FAIR      72  61  68 W5        29.88S
BOISE ID       FAIR      77  53  43 SE8       29.80F
SEATTLE WA     FAIR      63  53  70 SW9       29.98R
$$

*** WEATHER ACROSS MANITOBA...SASKATCHEWAN AND ONTARIO ***
                ***ONTARIO***

CITY           SKY/WX    TMP DP  RH WIND       PRES   REMARKS
GERALDTON      PTCLDY    48  46  93 SW3       29.92S
THUNDER BAY    PTCLDY    54  50  87 W3        29.97S
SIOUX LOOKOUT  PTCLDY    46  46 100 SW3       29.96F
TORONTO        PTCLDY    55  48  76 W8        29.93S
BIG TROUT LK   LGT RAIN  54  50  87 S8        29.77F
PICKLE LAKE    NOT AVBL
DRYDEN         CLEAR     57  50  77 S8        29.97F
KENORA         CLEAR     61  43  51 W6        30.00F
$$
                *** MANITOBA***

CITY           SKY/WX    TMP DP  RH WIND       PRES   REMARKS
BRANDON        MOCLDY    55  43  62 SE6       29.94F
DAUPHIN        CLEAR     54  45  71 SE7       29.89F
ISLAND LAKE    MOCLDY    66  39  37 W15G21    29.79F
PILOT MOUND      N/A     50  43  76 S9          N/A
THE PAS        MOCLDY    63  46  55 S6        29.80F
THOMPSON       PTCLDY    61  39  44 W6        29.73F
WINNIPEG       PTCLDY    59  45  58 SW8       29.98F
LYNN LAKE      CLEAR     61  43  51 NE15      29.75R
CHURCHILL      MOCLDY    39  39 100 NE18G25   29.83R
GILLAM         MOCLDY    57  50  77 N13       29.73F
$$
                ***SASKATCHEWAN***

CITY           SKY/WX    TMP DP  RH WIND       PRES   REMARKS
ESTEVAN        CLOUDY    64  45  48 SE14G21   29.86F
KINDERSLEY     PTCLDY    70  52  52 SE14      29.57F
LLOYDMINSTER   PTCLDY    68  54  60 E10       29.55F
PRINCE ALBERT  MOCLDY    61  50  67 E9        29.72F
REGINA         MOCLDY    66  46  48 SE17      29.78S
YORKTON        PTCLDY    63  48  59 SE12      29.84F



USA.gov is the U.S. government's official web portal to all federal, state and local government web resources and services.